WMT5CS LIME-LROP

Flight info

Callsign WMT5CS
Flight time 1h 38m
Altitude 18000
Route LIME/10 N0373F180 LEGL1W LEGLO L615 OSKOR/N0377F190 L615 NEVNI/N0452F360 DCT BARPI/N0455F370 DCT NEMEK DCT MOSAV DCT NASSY DCT PEROT DCT MAVIT DCT LAMIT DCT TOSVI TOSV2U LROP/08R
Aircraft A321/M-SDE3FGHIRWY/LB1

Departure

Time 2026-04-30 11:42
Airport Il Caravaggio International Airport (LIME)

Arrival

Time 2026-04-30 13:20
Airport Bucharest Henri Coandă International Airport (LROP)
Time Latitude Longitude Altitude Speed Heading
2026-04-30 11:33 45.66685 9.69801 787 ft 0 kts 194°
2026-04-30 11:35 45.66686 9.69801 787 ft 1 kts 194°
2026-04-30 11:35 45.66709 9.69811 787 ft 4 kts 200°
2026-04-30 11:36 45.66734 9.69826 787 ft 4 kts 211°
2026-04-30 11:36 45.66755 9.69848 787 ft 4 kts 231°
2026-04-30 11:36 45.66765 9.69877 787 ft 3 kts 281°
2026-04-30 11:36 45.66763 9.69888 787 ft 0 kts 285°
2026-04-30 11:38 45.66763 9.69887 787 ft 1 kts 285°
2026-04-30 11:38 45.66768 9.69863 787 ft 4 kts 285°
2026-04-30 11:39 45.66778 9.69812 787 ft 7 kts 285°
2026-04-30 11:39 45.66792 9.69733 787 ft 10 kts 285°
2026-04-30 11:39 45.66812 9.69629 787 ft 12 kts 285°
2026-04-30 11:39 45.66836 9.69500 787 ft 15 kts 285°
2026-04-30 11:40 45.66864 9.69348 787 ft 17 kts 285°
2026-04-30 11:40 45.66894 9.69190 787 ft 14 kts 285°
2026-04-30 11:40 45.66909 9.69047 787 ft 14 kts 278°
2026-04-30 11:40 45.66960 9.68985 787 ft 10 kts
2026-04-30 11:41 45.67032 9.69013 787 ft 12 kts 32°
2026-04-30 11:41 45.67071 9.69118 787 ft 13 kts 85°
2026-04-30 11:41 45.67052 9.69251 787 ft 15 kts 104°
2026-04-30 11:41 45.67014 9.69464 787 ft 46 kts 104°
2026-04-30 11:42 45.66865 9.70258 788 ft 117 kts 104°
2026-04-30 11:42 45.66614 9.71646 823 ft 166 kts 104°
2026-04-30 11:42 45.66313 9.73216 1624 ft 157 kts 107°
2026-04-30 11:42 45.66018 9.74735 2443 ft 162 kts 106°
2026-04-30 11:43 45.65729 9.76303 3115 ft 163 kts 105°
2026-04-30 11:43 45.65639 9.77925 3684 ft 165 kts 86°
2026-04-30 11:43 45.65669 9.79545 4316 ft 161 kts 92°
2026-04-30 11:43 45.65645 9.81157 4814 ft 169 kts 92°
2026-04-30 11:44 45.65610 9.82941 5052 ft 191 kts 92°
2026-04-30 11:44 45.65575 9.84941 5217 ft 211 kts 92°
2026-04-30 11:44 45.65540 9.87121 5442 ft 224 kts 91°
2026-04-30 11:44 45.65509 9.89370 5801 ft 228 kts 91°
2026-04-30 11:45 45.65482 9.91715 5985 ft 247 kts 90°
2026-04-30 11:45 45.65454 9.94197 6490 ft 252 kts 90°
2026-04-30 11:45 45.65426 9.96748 7022 ft 263 kts 89°
2026-04-30 11:45 45.65398 9.99385 7565 ft 273 kts 89°
2026-04-30 11:46 45.65368 10.02158 8131 ft 277 kts 89°
2026-04-30 11:46 45.65335 10.04916 8685 ft 279 kts 90°
2026-04-30 11:46 45.65300 10.07660 9234 ft 280 kts 90°
2026-04-30 11:46 45.65263 10.10450 9811 ft 282 kts 90°
2026-04-30 11:47 45.65228 10.13261 10389 ft 285 kts 89°
2026-04-30 11:47 45.65192 10.16138 10925 ft 295 kts 89°
2026-04-30 11:47 45.65155 10.19125 11471 ft 304 kts 89°
2026-04-30 11:47 45.65115 10.22183 12030 ft 312 kts 89°
2026-04-30 11:48 45.65072 10.25337 12599 ft 322 kts 89°
2026-04-30 11:48 45.65025 10.28577 13184 ft 330 kts 89°
2026-04-30 11:48 45.64978 10.31938 13408 ft 349 kts 89°
2026-04-30 11:48 45.64928 10.35503 13633 ft 366 kts 89°
2026-04-30 11:49 45.64875 10.39178 14181 ft 374 kts 89°
2026-04-30 11:49 45.64822 10.42914 14769 ft 378 kts 89°
2026-04-30 11:49 45.64780 10.46695 15386 ft 381 kts 89°
2026-04-30 11:49 45.64750 10.50503 15998 ft 385 kts 89°
2026-04-30 11:50 45.64725 10.54358 16617 ft 389 kts 89°
2026-04-30 11:50 45.64703 10.58243 17217 ft 393 kts 89°
2026-04-30 11:50 45.64678 10.62169 17845 ft 397 kts 88°
2026-04-30 11:50 45.64650 10.66129 18435 ft 400 kts 88°
2026-04-30 11:51 45.64617 10.70129 18968 ft 404 kts 88°
2026-04-30 11:51 45.64580 10.74155 19505 ft 408 kts 88°
2026-04-30 11:51 45.64539 10.78222 20051 ft 411 kts 88°
2026-04-30 11:51 45.64498 10.82313 20583 ft 413 kts 88°
2026-04-30 11:52 45.64455 10.86383 21061 ft 417 kts 88°
2026-04-30 11:52 45.64409 10.90537 21584 ft 419 kts 88°
2026-04-30 11:52 45.64362 10.94722 22094 ft 422 kts 88°
2026-04-30 11:52 45.64314 10.98931 22580 ft 425 kts 88°
2026-04-30 11:53 45.64266 11.03165 23053 ft 428 kts 88°
2026-04-30 11:53 45.64217 11.07436 23533 ft 431 kts 88°
2026-04-30 11:53 45.64164 11.11736 23966 ft 434 kts 88°
2026-04-30 11:53 45.64108 11.16058 24354 ft 437 kts 88°
2026-04-30 11:54 45.64046 11.20413 24740 ft 439 kts 88°
2026-04-30 11:54 45.63981 11.24785 25137 ft 442 kts 88°
2026-04-30 11:54 45.63915 11.29183 25530 ft 445 kts 88°
2026-04-30 11:54 45.63848 11.33620 25918 ft 447 kts 88°
2026-04-30 11:55 45.63785 11.38071 26293 ft 450 kts 88°
2026-04-30 11:55 45.63722 11.42554 26670 ft 452 kts 88°
2026-04-30 11:55 45.63656 11.47047 27041 ft 454 kts 88°
2026-04-30 11:55 45.63585 11.51579 27403 ft 457 kts 88°
2026-04-30 11:56 45.63510 11.56131 27764 ft 460 kts 88°
2026-04-30 11:56 45.63433 11.60706 28133 ft 462 kts 88°
2026-04-30 11:56 45.63353 11.65303 28510 ft 464 kts 88°
2026-04-30 11:56 45.63269 11.69935 28869 ft 467 kts 88°
2026-04-30 11:57 45.63184 11.74580 29288 ft 468 kts 88°
2026-04-30 11:57 45.63097 11.79221 29805 ft 467 kts 88°
2026-04-30 11:57 45.63013 11.83857 30318 ft 465 kts 88°
2026-04-30 11:57 45.62930 11.88471 30750 ft 464 kts 88°
2026-04-30 11:58 45.62844 11.93076 31158 ft 464 kts 88°
2026-04-30 11:58 45.62752 11.97688 31556 ft 463 kts 88°
2026-04-30 11:58 45.62658 12.02289 31951 ft 463 kts 88°
2026-04-30 11:58 45.62563 12.06880 32337 ft 463 kts 88°
2026-04-30 11:59 45.62465 12.11479 32719 ft 462 kts 88°
2026-04-30 11:59 45.62363 12.16066 33090 ft 462 kts 88°
2026-04-30 11:59 45.62258 12.20649 33466 ft 462 kts 88°
2026-04-30 11:59 45.62154 12.25238 33830 ft 462 kts 88°
2026-04-30 12:00 45.62048 12.29829 34189 ft 461 kts 88°
2026-04-30 12:00 45.61941 12.34348 34509 ft 461 kts 88°
2026-04-30 12:00 45.61831 12.38983 34808 ft 461 kts 88°
2026-04-30 12:00 45.61722 12.43559 35078 ft 461 kts 88°
2026-04-30 12:01 45.61613 12.48138 35353 ft 462 kts 88°
2026-04-30 12:01 45.61501 12.52721 35614 ft 462 kts 88°
2026-04-30 12:01 45.61386 12.57313 35879 ft 462 kts 88°
2026-04-30 12:01 45.61265 12.61905 36157 ft 463 kts 88°
2026-04-30 12:02 45.61142 12.66487 36416 ft 463 kts 88°
2026-04-30 12:02 45.61021 12.71091 36674 ft 463 kts 88°
2026-04-30 12:02 45.60903 12.75691 36919 ft 464 kts 88°
2026-04-30 12:02 45.60780 12.80295 37163 ft 464 kts 88°
2026-04-30 12:03 45.60654 12.84904 37281 ft 466 kts 88°
2026-04-30 12:03 45.60393 12.94166 37306 ft 467 kts 88°
2026-04-30 12:04 45.60121 13.03433 37300 ft 467 kts 89°
2026-04-30 12:04 45.59841 13.12651 37298 ft 468 kts 89°
2026-04-30 12:05 45.59554 13.21933 37299 ft 468 kts 89°
2026-04-30 12:05 45.59267 13.31211 37306 ft 468 kts 89°
2026-04-30 12:06 45.58966 13.40511 37314 ft 469 kts 89°
2026-04-30 12:06 45.58652 13.49824 37317 ft 470 kts 89°
2026-04-30 12:07 45.58444 13.59129 37324 ft 469 kts 86°
2026-04-30 12:07 45.58500 13.68434 37323 ft 468 kts 85°
2026-04-30 12:08 45.58590 13.77736 37320 ft 469 kts 85°
2026-04-30 12:08 45.58605 13.87054 37319 ft 470 kts 86°
2026-04-30 12:09 45.58569 13.96389 37316 ft 470 kts 86°
2026-04-30 12:09 45.58533 14.05659 37310 ft 470 kts 86°
2026-04-30 12:10 45.58492 14.14993 37315 ft 470 kts 86°
2026-04-30 12:10 45.58448 14.24327 37316 ft 470 kts 86°
2026-04-30 12:11 45.58398 14.33659 37323 ft 470 kts 87°
2026-04-30 12:11 45.58350 14.43008 37330 ft 471 kts 87°
2026-04-30 12:12 45.58293 14.52343 37339 ft 471 kts 87°
2026-04-30 12:12 45.58220 14.61674 37348 ft 471 kts 87°
2026-04-30 12:13 45.58140 14.71045 37355 ft 471 kts 87°
2026-04-30 12:13 45.58054 14.80336 37362 ft 471 kts 87°
2026-04-30 12:14 45.57962 14.89691 37372 ft 472 kts 87°
2026-04-30 12:14 45.57853 14.99059 37375 ft 472 kts 88°
2026-04-30 12:15 45.57739 15.08427 37383 ft 472 kts 88°
2026-04-30 12:15 45.57620 15.17800 37389 ft 472 kts 88°
2026-04-30 12:16 45.57494 15.27173 37393 ft 472 kts 88°
2026-04-30 12:16 45.57398 15.36551 37395 ft 472 kts 87°
2026-04-30 12:17 45.57381 15.50606 37393 ft 472 kts 86°
2026-04-30 12:17 45.57353 15.59993 37401 ft 473 kts 87°
2026-04-30 12:18 45.57305 15.67783 37396 ft 473 kts 87°
2026-04-30 12:18 45.57234 15.77166 37400 ft 473 kts 87°
2026-04-30 12:19 45.57168 15.86555 37400 ft 473 kts 87°
2026-04-30 12:19 45.57101 15.95938 37401 ft 473 kts 87°
2026-04-30 12:20 45.57018 16.05334 37403 ft 473 kts 88°
2026-04-30 12:20 45.56916 16.14728 37399 ft 473 kts 88°
2026-04-30 12:21 45.56810 16.24121 37407 ft 474 kts 88°
2026-04-30 12:21 45.56708 16.33463 37398 ft 474 kts 88°
2026-04-30 12:22 45.56599 16.42858 37397 ft 474 kts 88°
2026-04-30 12:22 45.56476 16.52263 37401 ft 474 kts 88°
2026-04-30 12:23 45.56343 16.61665 37397 ft 474 kts 88°
2026-04-30 12:23 45.56206 16.71079 37399 ft 474 kts 88°
2026-04-30 12:24 45.56068 16.80487 37398 ft 474 kts 88°
2026-04-30 12:24 45.55917 16.89887 37395 ft 474 kts 88°
2026-04-30 12:25 45.55311 16.99276 37395 ft 477 kts 95°
2026-04-30 12:25 45.54442 17.08665 37391 ft 477 kts 95°
2026-04-30 12:26 45.53572 17.18046 37391 ft 477 kts 95°
2026-04-30 12:26 45.52708 17.27362 37390 ft 477 kts 95°
2026-04-30 12:27 45.51830 17.36747 37385 ft 477 kts 95°
2026-04-30 12:27 45.50941 17.46131 37383 ft 478 kts 95°
2026-04-30 12:28 45.50037 17.55519 37385 ft 478 kts 95°
2026-04-30 12:28 45.49127 17.64898 37384 ft 478 kts 95°
2026-04-30 12:29 45.48214 17.74280 37382 ft 478 kts 95°
2026-04-30 12:29 45.47294 17.83663 37386 ft 478 kts 95°
2026-04-30 12:30 45.46364 17.93047 37385 ft 478 kts 95°
2026-04-30 12:30 45.45427 18.02420 37383 ft 478 kts 96°
2026-04-30 12:31 45.44506 18.11750 37382 ft 478 kts 94°
2026-04-30 12:31 45.43947 18.21154 37378 ft 476 kts 90°
2026-04-30 12:32 45.43627 18.30571 37379 ft 476 kts 90°
2026-04-30 12:32 45.43258 18.39993 37377 ft 477 kts 91°
2026-04-30 12:33 45.42789 18.49413 37376 ft 477 kts 91°
2026-04-30 12:33 45.42285 18.58828 37378 ft 477 kts 92°
2026-04-30 12:34 45.41791 18.68256 37380 ft 477 kts 91°
2026-04-30 12:34 45.41310 18.77678 37380 ft 477 kts 91°
2026-04-30 12:35 45.40817 18.87117 37381 ft 478 kts 92°
2026-04-30 12:35 45.40307 18.96548 37353 ft 478 kts 92°
2026-04-30 12:36 45.39782 19.05977 37357 ft 478 kts 92°
2026-04-30 12:36 45.39208 19.15396 37356 ft 478 kts 92°
2026-04-30 12:37 45.38619 19.24823 37357 ft 478 kts 92°
2026-04-30 12:37 45.38029 19.34247 37358 ft 479 kts 92°
2026-04-30 12:38 45.37433 19.43675 37358 ft 479 kts 93°
2026-04-30 12:38 45.36836 19.53108 37352 ft 479 kts 93°
2026-04-30 12:39 45.36221 19.62540 37347 ft 479 kts 93°
2026-04-30 12:39 45.35601 19.71983 37350 ft 479 kts 93°
2026-04-30 12:40 45.34982 19.81369 37352 ft 480 kts 93°
2026-04-30 12:40 45.34349 19.90809 37350 ft 480 kts 93°
2026-04-30 12:41 45.33700 20.00248 37348 ft 480 kts 94°
2026-04-30 12:41 45.33050 20.09710 37347 ft 480 kts 94°
2026-04-30 12:42 45.32319 20.19142 37344 ft 481 kts 95°
2026-04-30 12:42 45.31418 20.28576 37342 ft 481 kts 96°
2026-04-30 12:43 45.30491 20.37989 37339 ft 481 kts 96°
2026-04-30 12:43 45.29600 20.47355 37335 ft 482 kts 96°
2026-04-30 12:44 45.28717 20.56778 37331 ft 482 kts 96°
2026-04-30 12:44 45.27822 20.66213 37323 ft 482 kts 96°
2026-04-30 12:45 45.26912 20.75646 37319 ft 482 kts 96°
2026-04-30 12:45 45.25996 20.85070 37317 ft 482 kts 96°
2026-04-30 12:46 45.25073 20.94511 37307 ft 483 kts 96°
2026-04-30 12:46 45.24141 21.03960 37296 ft 483 kts 96°
2026-04-30 12:47 45.23193 21.13408 37297 ft 484 kts 97°
2026-04-30 12:47 45.22237 21.22851 37295 ft 484 kts 97°
2026-04-30 12:48 45.21277 21.32305 37289 ft 484 kts 97°
2026-04-30 12:48 45.20313 21.41755 37295 ft 485 kts 97°
2026-04-30 12:49 45.19335 21.51227 37296 ft 485 kts 97°
2026-04-30 12:49 45.18256 21.60602 37294 ft 486 kts 99°
2026-04-30 12:50 45.16983 21.70019 37288 ft 487 kts 100°
2026-04-30 12:50 45.15669 21.79435 37287 ft 487 kts 100°
2026-04-30 12:51 45.14398 21.88865 37284 ft 488 kts 99°
2026-04-30 12:51 45.13153 21.98306 37282 ft 488 kts 100°
2026-04-30 12:52 45.11888 22.07760 37284 ft 488 kts 100°
2026-04-30 12:52 45.10604 22.17206 37285 ft 489 kts 100°
2026-04-30 12:53 45.09311 22.26660 37286 ft 489 kts 100°
2026-04-30 12:53 45.08020 22.36121 37293 ft 490 kts 101°
2026-04-30 12:54 45.06709 22.45572 37292 ft 490 kts 101°
2026-04-30 12:54 45.05384 22.55041 37296 ft 490 kts 101°
2026-04-30 12:55 45.04056 22.64498 37302 ft 491 kts 101°
2026-04-30 12:55 45.02723 22.73978 37303 ft 491 kts 101°
2026-04-30 12:56 45.01384 22.83461 37309 ft 492 kts 101°
2026-04-30 12:56 45.00041 22.92952 37310 ft 493 kts 101°
2026-04-30 12:57 44.98684 23.02444 37311 ft 493 kts 102°
2026-04-30 12:57 44.97307 23.11938 37310 ft 494 kts 102°
2026-04-30 12:58 44.95918 23.21437 37310 ft 494 kts 102°
2026-04-30 12:58 44.94526 23.30944 37310 ft 495 kts 102°
2026-04-30 12:59 44.93127 23.40462 37317 ft 495 kts 102°
2026-04-30 12:59 44.92421 23.45233 36906 ft 498 kts 102°
2026-04-30 12:59 44.91712 23.50013 36351 ft 498 kts 102°
2026-04-30 13:00 44.91003 23.54792 35818 ft 498 kts 103°
2026-04-30 13:00 44.90287 23.59583 35289 ft 499 kts 103°
2026-04-30 13:00 44.89567 23.64365 34784 ft 500 kts 103°
2026-04-30 13:00 44.88842 23.69169 34201 ft 502 kts 103°
2026-04-30 13:01 44.88114 23.73987 33527 ft 503 kts 104°
2026-04-30 13:01 44.87381 23.78824 32857 ft 505 kts 104°
2026-04-30 13:01 44.86643 23.83678 32212 ft 508 kts 104°
2026-04-30 13:01 44.85901 23.88560 31473 ft 510 kts 105°
2026-04-30 13:02 44.85157 23.93452 30748 ft 512 kts 105°
2026-04-30 13:02 44.84405 23.98383 29961 ft 515 kts 106°
2026-04-30 13:02 44.83650 24.03325 29099 ft 516 kts 106°
2026-04-30 13:02 44.82891 24.08269 28280 ft 518 kts 106°
2026-04-30 13:03 44.82125 24.13219 27476 ft 517 kts 106°
2026-04-30 13:03 44.81354 24.18167 26691 ft 516 kts 106°
2026-04-30 13:03 44.80595 24.23027 25960 ft 514 kts 107°
2026-04-30 13:03 44.79834 24.27916 25389 ft 508 kts 107°
2026-04-30 13:04 44.79088 24.32734 24851 ft 501 kts 107°
2026-04-30 13:04 44.78589 24.35957 24476 ft 497 kts 107°
2026-04-30 13:04 44.77855 24.40684 23933 ft 492 kts 107°
2026-04-30 13:04 44.76883 24.46861 23085 ft 484 kts 107°
2026-04-30 13:05 44.76158 24.51445 22511 ft 477 kts 107°
2026-04-30 13:05 44.75672 24.54506 22142 ft 471 kts 107°
2026-04-30 13:05 44.74732 24.60404 21441 ft 462 kts 106°
2026-04-30 13:06 44.73564 24.67698 20577 ft 451 kts 106°
2026-04-30 13:06 44.72879 24.71972 20069 ft 444 kts 106°
2026-04-30 13:06 44.72202 24.76176 19573 ft 438 kts 105°
2026-04-30 13:06 44.71535 24.80330 19081 ft 432 kts 105°
2026-04-30 13:07 44.70877 24.84421 18597 ft 427 kts 105°
2026-04-30 13:07 44.70224 24.88458 18045 ft 421 kts 105°
2026-04-30 13:07 44.69578 24.92447 17498 ft 417 kts 105°
2026-04-30 13:07 44.68939 24.96388 17102 ft 410 kts 105°
2026-04-30 13:08 44.68313 25.00243 16848 ft 408 kts 105°
2026-04-30 13:08 44.67678 25.04125 16583 ft 406 kts 105°
2026-04-30 13:08 44.67045 25.07976 16326 ft 404 kts 105°
2026-04-30 13:08 44.66414 25.11805 16063 ft 400 kts 105°
2026-04-30 13:09 44.65801 25.15527 15799 ft 388 kts 105°
2026-04-30 13:09 44.65200 25.19189 15545 ft 376 kts 105°
2026-04-30 13:09 44.64620 25.22720 15292 ft 365 kts 105°
2026-04-30 13:09 44.64055 25.26150 14941 ft 357 kts 105°
2026-04-30 13:10 44.63497 25.29519 14573 ft 351 kts 105°
2026-04-30 13:10 44.62947 25.32821 14210 ft 344 kts 105°
2026-04-30 13:10 44.62405 25.36083 13466 ft 342 kts 105°
2026-04-30 13:10 44.61870 25.39305 12656 ft 336 kts 104°
2026-04-30 13:11 44.61344 25.42470 11816 ft 331 kts 104°
2026-04-30 13:11 44.60822 25.45604 10923 ft 329 kts 103°
2026-04-30 13:11 44.60304 25.48707 10115 ft 322 kts 103°
2026-04-30 13:11 44.59799 25.51708 9289 ft 309 kts 102°
2026-04-30 13:12 44.59311 25.54591 8543 ft 297 kts 102°
2026-04-30 13:12 44.58846 25.57330 7998 ft 281 kts 101°
2026-04-30 13:12 44.58403 25.59935 7619 ft 270 kts 101°
2026-04-30 13:13 44.57544 25.65024 6492 ft 271 kts 101°
2026-04-30 13:13 44.57107 25.67615 5938 ft 270 kts 101°
2026-04-30 13:13 44.56263 25.72548 5294 ft 246 kts 100°
2026-04-30 13:14 44.55873 25.74806 5028 ft 230 kts 100°
2026-04-30 13:14 44.55505 25.76949 4515 ft 224 kts 100°
2026-04-30 13:14 44.54810 25.81027 3724 ft 202 kts 99°
2026-04-30 13:15 44.54591 25.82900 3395 ft 183 kts 84°
2026-04-30 13:15 44.54791 25.85982 3191 ft 144 kts 81°
2026-04-30 13:15 44.54894 25.87326 3033 ft 135 kts 80°
2026-04-30 13:16 44.54995 25.88622 2881 ft 132 kts 80°
2026-04-30 13:16 44.55094 25.89894 2713 ft 131 kts 80°
2026-04-30 13:16 44.55193 25.91167 2554 ft 132 kts 80°
2026-04-30 13:17 44.55393 25.93738 2219 ft 133 kts 78°
2026-04-30 13:17 44.55494 25.95037 2058 ft 134 kts 79°
2026-04-30 13:17 44.55688 25.97560 1726 ft 127 kts 78°
2026-04-30 13:18 44.55783 25.98792 1553 ft 127 kts 79°
2026-04-30 13:18 44.55973 26.01253 1212 ft 126 kts 79°
2026-04-30 13:18 44.56066 26.02462 1045 ft 124 kts 79°
2026-04-30 13:19 44.56158 26.03664 884 ft 124 kts 80°
2026-04-30 13:19 44.56250 26.04861 722 ft 124 kts 79°
2026-04-30 13:19 44.56337 26.06068 568 ft 123 kts 81°
2026-04-30 13:19 44.56433 26.07268 413 ft 123 kts 79°
2026-04-30 13:20 44.56525 26.08443 325 ft 112 kts 81°
2026-04-30 13:20 44.56593 26.09313 318 ft 66 kts 85°
2026-04-30 13:20 44.56631 26.09816 321 ft 47 kts 83°
2026-04-30 13:20 44.56664 26.10272 322 ft 47 kts 84°
2026-04-30 13:21 44.56692 26.10634 321 ft 25 kts 83°
2026-04-30 13:21 44.56744 26.10765 321 ft 15 kts 15°
2026-04-30 13:21 44.56876 26.10747 320 ft 22 kts 353°
2026-04-30 13:22 44.57065 26.10525 321 ft 18 kts 277°
2026-04-30 13:22 44.57059 26.10365 321 ft 14 kts 264°
2026-04-30 13:22 44.57043 26.10146 321 ft 10 kts 264°
2026-04-30 13:23 44.57034 26.10040 320 ft 12 kts 263°
2026-04-30 13:23 44.57014 26.09786 321 ft 11 kts 264°
2026-04-30 13:24 44.56999 26.09590 321 ft 10 kts 264°
2026-04-30 13:24 44.56980 26.09329 321 ft 17 kts 265°
2026-04-30 13:25 44.56956 26.09040 321 ft 11 kts 263°
2026-04-30 13:25 44.56941 26.08887 321 ft 2 kts 238°
2026-04-30 13:26 44.56910 26.08872 321 ft 2 kts 170°
2026-04-30 13:26 44.56885 26.08876 321 ft 0 kts 173°